Location: Ecklingerode
(51.5036°N, 10.3122°E)
Time: 07:38:27
(UTC+00:00)

Cosmos 1354 Rocket - Pass Details

Date: 29 October 2020
Orbit: 764 x 783 km, 74.0° (Epoch: 01 December)

Event Time Altitude Azimuth Distance (km) Brightness Sun altitude
Rises 17:26:59 0° 336° (NNW) 3,248 7.5 -14.5°
Reaches altitude 10° 17:29:23 10° 339° (NNW) 2,320 6.7 -14.9°
Maximum altitude 17:34:39 69° 63° (ENE) 826 3.9 -15.7°
Drops below altitude 10° 17:39:54 10° 147° (SSE) 2,317 6.2 -16.5°
Enters shadow 17:41:03 - 148° (SSE) 2,761 6.6 -16.7°
